Location: Brahman Valley
(40.6513°N, 111.8855°W)
Time: 22:06:11
(UTC+00:00)

Vanguard 2 - Pass Details

Date: 15 May 2021
Orbit: 552 x 2937 km, 32.9° (Epoch: 14 June)

Event Time Altitude Azimuth Distance (km) Brightness Sun altitude
Rises 16:48:42 0° 274° (W) 5,455 11.5 50.5°
Reaches altitude 10° 16:52:00 10° 270° (W) 4,730 11.3 51.1°
Maximum altitude 17:05:34 50° 201° (SSW) 3,289 11.4 53.4°
Drops below altitude 10° 17:22:19 10° 133° (SE) 5,723 12.7 56.2°
Sets 17:26:50 0° 128° (SE) 6,637 12.8 56.9°
